Weather History for Alabaster, AL

Change the Weather History Date:

Thursday, December 19, 2013

  Actual Average Record
Temperature  
Mean Temperature 49 °F 46 °F  
Max Temperature 65 °F 55 °F 74 °F (1967)
Min Temperature 32 °F 36 °F 8 °F (1963)
Degree Days  
Heating Degree Days 16 19  
Month to date heating degree days 294 331  
Since 1 July heating degree days 750 775  
Moisture  
Dew Point 32 °F    
Average Humidity 61    
Maximum Humidity 92    
Minimum Humidity 30    
Precipitation  
Precipitation 0.00 in 0.15 in 1.30 in (2002)
Month to date precipitation 6.41 2.96  
Year to date precipitation 61.58 52.84  
Snow  
Snow 0.00 in - - ()
Month to date snowfall 0.0  
Since 1 July snowfall 0.0  
Snow Depth 0.00 in    
Sea Level Pressure  
Sea Level Pressure 30.22 in    
Wind  
Wind Speed 2 mph (SE)    
Max Wind Speed 10 mph    
Max Gust Speed 13 mph    
Visibility 10 miles    
Events      
T = Trace of Precipitation, MM = Missing Value Source: NWS Daily Summary

Daily Weather History Graph

Daily Weather History Graph

Search for Another Location

Airport:

Trip Planner

Search our weather history database for the weather conditions in past years. The results will help you decide how hot, cold, wet, or windy it might be!

Date:

Astronomy

Dec. 19, 2013 Rise Set
Actual Time 6:45 AM CST 4:43 PM CST
Civil Twilight 6:18 AM CST 5:10 PM CST
Nautical Twilight 5:47 AM CST 5:41 PM CST
Astronomical Twilight 5:16 AM CST 6:11 PM CST
Moon 7:02 PM CST (12/19) 8:09 AM CST (12/19)
Length of Visible Light 10h 52m
Length of Day
9h 57m
Waning Gibbous, 95% of the Moon is Illuminated
Dec 19
Waning Gibbous
Dec 25
Last Quarter
Jan 1
New
Jan 7
First Quarter
Jan 15
Full

Hourly Weather History & Observations

Time (CST) Temp. Windchill Dew Point Humidity Pressure Visibility Wind Dir Wind Speed Gust Speed Precip Events Conditions
12:53 AM 36.0 °F - 32.0 °F 86% 30.26 in 10.0 mi Calm Calm - N/A   Clear
1:53 AM 35.1 °F - 32.0 °F 89% 30.26 in 10.0 mi Calm Calm - N/A   Clear
2:53 AM 34.0 °F - 30.9 °F 89% 30.27 in 10.0 mi Calm Calm - N/A   Clear
3:53 AM 34.0 °F - 30.0 °F 85% 30.27 in 10.0 mi Calm Calm - N/A   Clear
4:53 AM 34.0 °F - 30.9 °F 89% 30.28 in 10.0 mi Calm Calm - N/A   Clear
5:53 AM 33.1 °F - 30.9 °F 92% 30.29 in 10.0 mi Calm Calm - N/A   Clear
6:53 AM 32.0 °F - 30.0 °F 92% 30.29 in 10.0 mi Calm Calm - N/A   Clear
7:53 AM 39.9 °F 37.8 °F 30.9 °F 70% 30.30 in 10.0 mi ESE 3.5 mph - N/A   Clear
8:53 AM 44.1 °F 40.8 °F 30.9 °F 60% 30.31 in 10.0 mi East 5.8 mph - N/A   Clear
9:53 AM 51.1 °F - 32.0 °F 48% 30.32 in 10.0 mi South 5.8 mph - N/A   Clear
10:53 AM 55.9 °F - 33.1 °F 42% 30.30 in 10.0 mi Variable 3.5 mph - N/A   Clear
11:53 AM 60.1 °F - 30.9 °F 33% 30.25 in 10.0 mi SSE 8.1 mph - N/A   Clear
12:53 PM 63.0 °F - 30.0 °F 29% 30.22 in 10.0 mi SE 4.6 mph - N/A   Clear
1:53 PM 63.0 °F - 35.1 °F 35% 30.19 in 10.0 mi Variable 4.6 mph - N/A   Clear
2:53 PM 63.0 °F - 35.1 °F 35% 30.18 in 10.0 mi SSW 3.5 mph - N/A   Clear
3:53 PM 61.0 °F - 37.9 °F 42% 30.18 in 10.0 mi Calm Calm - N/A   Clear
4:53 PM 57.0 °F - 33.1 °F 40% 30.18 in 10.0 mi ESE 3.5 mph - N/A   Clear
5:53 PM 55.9 °F - 32.0 °F 40% 30.18 in 10.0 mi SE 4.6 mph - N/A   Clear
6:53 PM 51.1 °F - 34.0 °F 52% 30.19 in 10.0 mi Calm Calm - N/A   Clear
7:53 PM 50.0 °F - 33.1 °F 52% 30.17 in 10.0 mi Calm Calm - N/A   Clear
8:53 PM 50.0 °F - 32.0 °F 50% 30.16 in 10.0 mi Variable 3.5 mph - N/A   Clear
9:53 PM 48.9 °F - 32.0 °F 52% 30.16 in 10.0 mi Calm Calm - N/A   Clear
10:53 PM 46.9 °F - 34.0 °F 61% 30.16 in 10.0 mi Calm Calm - N/A   Scattered Clouds
11:02 PM 48.9 °F - 33.1 °F 54% 30.16 in 10.0 mi Calm Calm - N/A   Mostly Cloudy
11:11 PM 48.9 °F - 33.1 °F 54% 30.16 in 10.0 mi Calm Calm - N/A   Scattered Clouds
11:53 PM 48.9 °F - 34.0 °F 56% 30.14 in 10.0 mi Calm Calm - N/A   Clear